Hourly Weather Klagenfurt

Today, 8 August, Saturday

Time Temperature Precipitation Wind Pressure Humidity
00:00 +18°C° 0 mm 1 mps 694 mmHg 77%
01:00 +18°C° 0 mm 1 mps 694 mmHg 74%
02:00 +16°C° 0 mm 1 mps 694 mmHg 75%
03:00 +16°C° 0 mm 1 mps 694 mmHg 77%
04:00 +16°C° 0 mm 1 mps 693 mmHg 79%
05:00 +18°C° 0 mm 1 mps 694 mmHg 76%
06:00 +19°C° 0 mm 1 mps 694 mmHg 74%
07:00 +20°C° 0 mm 1 mps 694 mmHg 72%
08:00 +22°C° 0 mm 1 mps 695 mmHg 65%
09:00 +25°C° 0 mm 1 mps 695 mmHg 57%
10:00 +27°C° 0 mm 1 mps 695 mmHg 49%
11:00 +28°C° 0 mm 1 mps 695 mmHg 46%
12:00 +29°C° 0 mm 1 mps 695 mmHg 44%
13:00 +29°C° 0 mm 1 mps 695 mmHg 41%
14:00 +29°C° 0 mm 1 mps 695 mmHg 43%
15:00 +29°C° 0 mm 1 mps 695 mmHg 45%
16:00 +28°C° 0 mm 1 mps 694 mmHg 47%
17:00 +26°C° 0 mm 1 mps 694 mmHg 57%
18:00 +24°C° 0 mm 1 mps 693 mmHg 66%
19:00 +20°C° 0 mm 0 mps 693 mmHg 75%
20:00 +19°C° 0 mm 0 mps 693 mmHg 77%
21:00 +20°C° 0 mm 1 mps 693 mmHg 79%
22:00 +19°C° 0 mm 1 mps 693 mmHg 80%
23:00 +19°C° 0 mm 1 mps 693 mmHg 81%

Tomorrow, 9 August, Sunday

Time Temperature Precipitation Wind Pressure Humidity
00:00 +19°C° 0 mm 1 mps 693 mmHg 81%
01:00 +18°C° 0 mm 1 mps 693 mmHg 82%
02:00 +18°C° 0 mm 1 mps 693 mmHg 82%
03:00 +18°C° 0 mm 1 mps 692 mmHg 83%
04:00 +16°C° 0 mm 1 mps 692 mmHg 84%
05:00 +19°C° 0 mm 1 mps 692 mmHg 81%
06:00 +20°C° 0 mm 1 mps 693 mmHg 79%
07:00 +19°C° 0 mm 0 mps 693 mmHg 77%
08:00 +23°C° 0 mm 1 mps 693 mmHg 69%
09:00 +25°C° 0 mm 1 mps 694 mmHg 62%
10:00 +27°C° 0 mm 1 mps 694 mmHg 55%
11:00 +28°C° 0.1 mm 1 mps 694 mmHg 52%
12:00 +28°C° 0.1 mm 1 mps 694 mmHg 49%
13:00 +29°C° 0.1 mm 1 mps 693 mmHg 47%
14:00 +28°C° 0.2 mm 1 mps 693 mmHg 50%
15:00 +28°C° 0.2 mm 1 mps 693 mmHg 53%
16:00 +27°C° 0.2 mm 1 mps 692 mmHg 57%
17:00 +25°C° 0.1 mm 1 mps 692 mmHg 65%
18:00 +24°C° 0.1 mm 1 mps 692 mmHg 72%
19:00 +22°C° 0.1 mm 1 mps 691 mmHg 80%
20:00 +21°C° 0 mm 1 mps 691 mmHg 81%
21:00 +20°C° 0 mm 1 mps 692 mmHg 82%
22:00 +19°C° 0 mm 1 mps 692 mmHg 82%
23:00 +19°C° 0 mm 1 mps 691 mmHg 83%

Day after tomorrow, 10 August, Monday

Time Temperature Precipitation Wind Pressure Humidity
00:00 +18°C° 0 mm 1 mps 691 mmHg 84%
01:00 +18°C° 0 mm 1 mps 691 mmHg 85%
02:00 +18°C° 0 mm 1 mps 691 mmHg 85%
03:00 +16°C° 0 mm 1 mps 691 mmHg 86%
04:00 +16°C° 0 mm 1 mps 691 mmHg 87%
05:00 +18°C° 0 mm 1 mps 691 mmHg 85%
06:00 +19°C° 0 mm 1 mps 691 mmHg 83%
07:00 +19°C° 0 mm 0 mps 691 mmHg 81%
08:00 +23°C° 0 mm 1 mps 692 mmHg 72%
09:00 +25°C° 0 mm 1 mps 692 mmHg 63%
10:00 +27°C° 0 mm 1 mps 692 mmHg 55%
11:00 +28°C° 0.2 mm 1 mps 692 mmHg 53%
12:00 +28°C° 0.2 mm 1 mps 692 mmHg 52%
13:00 +29°C° 0.2 mm 1 mps 692 mmHg 51%
14:00 +29°C° 0.3 mm 1 mps 692 mmHg 52%
15:00 +28°C° 0.3 mm 1 mps 692 mmHg 53%
16:00 +28°C° 0.3 mm 1 mps 691 mmHg 54%
17:00 +26°C° 0.1 mm 1 mps 691 mmHg 62%
18:00 +24°C° 0.1 mm 1 mps 691 mmHg 70%
19:00 +20°C° 0.1 mm 0 mps 690 mmHg 79%
20:00 +19°C° 0 mm 0 mps 691 mmHg 80%
21:00 +20°C° 0 mm 1 mps 691 mmHg 80%
22:00 +20°C° 0 mm 1 mps 691 mmHg 81%
23:00 +19°C° 0 mm 1 mps 691 mmHg 82%

11 August, Tuesday

Time Temperature Precipitation Wind Pressure Humidity
00:00 +19°C° 0 mm 1 mps 691 mmHg 83%
01:00 +19°C° 0 mm 1 mps 691 mmHg 83%
02:00 +18°C° 0 mm 1 mps 691 mmHg 84%
03:00 +18°C° 0 mm 1 mps 691 mmHg 85%
04:00 +18°C° 0 mm 1 mps 691 mmHg 86%
05:00 +17°C° 0 mm 0 mps 691 mmHg 84%
06:00 +18°C° 0 mm 0 mps 691 mmHg 81%
07:00 +19°C° 0 mm 0 mps 691 mmHg 79%
08:00 +22°C° 0 mm 0 mps 692 mmHg 71%
09:00 +24°C° 0 mm 0 mps 692 mmHg 63%
10:00 +28°C° 0 mm 1 mps 693 mmHg 55%
11:00 +28°C° 0.1 mm 1 mps 693 mmHg 54%
12:00 +29°C° 0.1 mm 1 mps 693 mmHg 53%
13:00 +29°C° 0.1 mm 1 mps 692 mmHg 52%
14:00 +29°C° 0.3 mm 1 mps 692 mmHg 52%
15:00 +29°C° 0.3 mm 1 mps 692 mmHg 53%
16:00 +28°C° 0.3 mm 1 mps 692 mmHg 54%
17:00 +26°C° 0.3 mm 1 mps 691 mmHg 63%
18:00 +24°C° 0.3 mm 1 mps 691 mmHg 72%
19:00 +22°C° 0.3 mm 1 mps 691 mmHg 80%
20:00 +22°C° 0.4 mm 1 mps 691 mmHg 82%
21:00 +21°C° 0.4 mm 1 mps 691 mmHg 84%
22:00 +20°C° 0.4 mm 1 mps 691 mmHg 86%
23:00 +19°C° 0.6 mm 1 mps 691 mmHg 87%

12 August, Wednesday

Time Temperature Precipitation Wind Pressure Humidity
00:00 +19°C° 0.6 mm 1 mps 691 mmHg 88%
01:00 +17°C° 0.6 mm 0 mps 690 mmHg 90%
02:00 +16°C° 0.3 mm 0 mps 690 mmHg 90%
03:00 +16°C° 0.3 mm 0 mps 690 mmHg 91%
04:00 +16°C° 0.3 mm 0 mps 690 mmHg 92%
05:00 +17°C° 0.3 mm 0 mps 690 mmHg 91%
06:00 +17°C° 0.3 mm 0 mps 690 mmHg 90%
07:00 +18°C° 0.3 mm 0 mps 691 mmHg 90%
08:00 +20°C° 0.4 mm 0 mps 691 mmHg 83%
09:00 +24°C° 0.4 mm 1 mps 691 mmHg 77%
10:00 +25°C° 0.4 mm 1 mps 692 mmHg 71%
11:00 +26°C° 1.2 mm 1 mps 691 mmHg 70%
12:00 +26°C° 1.2 mm 1 mps 691 mmHg 69%
13:00 +27°C° 1.2 mm 1 mps 691 mmHg 68%
14:00 +27°C° 1.3 mm 1 mps 691 mmHg 69%
15:00 +26°C° 1.3 mm 1 mps 691 mmHg 71%
16:00 +26°C° 1.3 mm 1 mps 691 mmHg 72%
17:00 +24°C° 1.3 mm 1 mps 691 mmHg 78%
18:00 +23°C° 1.3 mm 1 mps 690 mmHg 84%
19:00 +19°C° 1.3 mm 0 mps 690 mmHg 90%
20:00 +18°C° 0.2 mm 0 mps 690 mmHg 91%
21:00 +18°C° 0.2 mm 0 mps 690 mmHg 92%
22:00 +17°C° 0.2 mm 0 mps 690 mmHg 93%
23:00 +17°C° 0 mm 0 mps 690 mmHg 93%

13 August, Thursday

Time Temperature Precipitation Wind Pressure Humidity
00:00 +16°C° 0 mm 0 mps 690 mmHg 94%
01:00 +16°C° 0 mm 0 mps 690 mmHg 94%
02:00 +16°C° 0 mm 0 mps 690 mmHg 94%
03:00 +16°C° 0 mm 0 mps 690 mmHg 94%
04:00 +15°C° 0 mm 0 mps 690 mmHg 94%
05:00 +16°C° 0.3 mm 0 mps 690 mmHg 94%
06:00 +17°C° 0.3 mm 0 mps 690 mmHg 94%
07:00 +18°C° 0.3 mm 0 mps 690 mmHg 93%
08:00 +19°C° 0.4 mm 0 mps 691 mmHg 89%
09:00 +20°C° 0.4 mm 0 mps 691 mmHg 84%
10:00 +21°C° 0.4 mm 0 mps 691 mmHg 80%
11:00 +23°C° 0.3 mm 1 mps 691 mmHg 78%
12:00 +24°C° 0.3 mm 1 mps 691 mmHg 77%
13:00 +24°C° 0.3 mm 1 mps 691 mmHg 75%
14:00 +25°C° 0.4 mm 1 mps 691 mmHg 73%
15:00 +23°C° 0.4 mm 0 mps 691 mmHg 71%
16:00 +24°C° 0.4 mm 0 mps 691 mmHg 69%
17:00 +22°C° 1.2 mm 0 mps 690 mmHg 75%
18:00 +20°C° 1.2 mm 0 mps 690 mmHg 82%
19:00 +19°C° 1.2 mm 0 mps 689 mmHg 89%
20:00 +18°C° 0.2 mm 0 mps 689 mmHg 89%
21:00 +17°C° 0.2 mm 0 mps 689 mmHg 90%
22:00 +19°C° 0.2 mm 1 mps 689 mmHg 91%
23:00 +18°C° 0 mm 1 mps 689 mmHg 92%
Show more